Keps
Threads by month
- ----- 2024 -----
- December
- November
- October
- September
- August
- July
- June
- May
- April
- March
- February
- January
- ----- 2023 -----
- December
- November
- October
- September
- August
- July
- June
- May
- April
- March
- February
- January
- ----- 2022 -----
- December
- November
- October
- September
- August
- July
- June
- May
- April
- March
- February
- January
- ----- 2021 -----
- December
- November
- October
- September
- August
- July
- June
- May
- April
- March
- February
- January
- ----- 2020 -----
- December
- November
- October
- September
- August
- July
- June
- May
- April
- March
- February
- January
- ----- 2019 -----
- December
- November
- October
- September
- August
- July
- June
- May
- April
- March
- February
- January
- ----- 2018 -----
- December
- November
- October
- September
- August
- July
- June
- May
- April
- March
- February
- January
- ----- 2017 -----
- December
- November
- October
- September
- August
- July
- June
- May
- April
- March
- February
- January
- ----- 2016 -----
- December
- November
- October
- September
- August
- July
- June
- May
- April
- March
- February
- January
- ----- 2015 -----
- December
- November
- October
- September
- August
- July
- June
- May
- April
- March
- February
- January
- ----- 2014 -----
- December
- November
- October
- September
- August
- July
- June
- May
- April
- March
- February
- January
- ----- 2013 -----
- December
- November
- October
- September
- August
- July
- June
- May
- April
- March
- February
- January
- ----- 2012 -----
- December
- November
- October
- September
- August
- July
- June
- May
- April
- March
- February
- January
- ----- 2011 -----
- December
- November
- October
- September
- August
- July
- June
- May
- April
- March
- February
- January
- ----- 2010 -----
- December
- November
- October
- September
- August
- July
- June
- May
- April
- March
- February
- January
- ----- 2009 -----
- December
- November
- October
- September
- August
- July
- June
- May
- April
- March
- February
- January
- ----- 2008 -----
- December
- November
- October
- September
- August
- July
- June
- May
- April
- March
- February
- January
- ----- 2007 -----
- December
- November
- October
- September
- August
- July
- June
- May
- April
- March
- February
- January
- ----- 2006 -----
- December
- November
- October
- September
May 2019
- 1 participants
- 9 discussions
The following amateur satellite has decayed and has been removed
from the AMSAT-NA TLE distribution:
BIRD-G - CAT ID 42821 (reentered 05-22-2019).
1
0
SB KEPS @ AMSAT $ORB19150.N
2Line Orbital Elements 19150.AMSAT
HR AMSAT ORBITAL ELEMENTS FOR AMATEUR SATELLITES IN NASA FORMAT
FROM WA5QGD FORT WORTH,TX May 30, 2019
BID: ORB19150.N
DECODE 2-LINE ELSETS WITH THE FOLLOWING KEY:
1 AAAAAU 00 0 0 BBBBB.BBBBBBBB .CCCCCCCC 00000-0 00000-0 0 DDDZ
2 AAAAA EEE.EEEE FFF.FFFF GGGGGGG HHH.HHHH III.IIII JJ.JJJJJJJJKKKKKZ
KEY: A-CATALOGNUM B-EPOCHTIME C-DECAY D-ELSETNUM E-INCLINATION F-RAAN
G-ECCENTRICITY H-ARGPERIGEE I-MNANOM J-MNMOTION K-ORBITNUM Z-CHECKSUM
TO ALL RADIO AMATEURS BT
AO-07
1 07530U 74089B 19150.40585035 -.00000042 00000-0 17014-4 0 9993
2 07530 101.7423 118.2655 0012445 26.1596 91.2225 12.53638267 38104
UO-11
1 14781U 84021B 19150.87651029 .00000040 00000-0 11068-4 0 9994
2 14781 97.6119 176.4836 0009195 31.0785 329.0972 14.83086945895977
LO-19
1 20442U 90005G 19150.81578824 -.00000023 00000-0 77144-5 0 9999
2 20442 98.6476 92.8485 0011246 200.0193 160.0551 14.32925848533677
HUBBLE
1 20580U 90037B 19150.84152876 .00000393 00000-0 12994-4 0 9995
2 20580 28.4704 336.5846 0002548 283.2317 182.1894 15.09229844398032
MET-2/21
1 22782U 93055A 19150.22712153 .00000030 00000-0 13820-4 0 9993
2 22782 82.5482 178.5206 0021159 230.6403 198.8934 13.83817410300176
AO-27
1 22825U 93061C 19150.88879562 -.00000010 00000-0 14256-4 0 9991
2 22825 98.9023 139.0976 0009364 57.8349 302.3739 14.30059312339263
IO-26
1 22826U 93061D 19150.89484302 .00000003 00000-0 19027-4 0 9999
2 22826 98.8963 139.0977 0009758 47.5575 312.6430 14.30392888339463
FO-29
1 24278U 96046B 19150.39791420 -.00000027 00000-0 11815-4 0 9999
2 24278 98.5343 306.4281 0349359 290.1246 66.2629 13.53091265125192
NOAA-15
1 25338U 98030A 19150.47041188 .00000073 00000-0 49516-4 0 9999
2 25338 98.7478 171.7702 0009357 302.2961 57.7312 14.25910770 94507
GO-32
1 25397U 98043D 19149.87056385 -.00000031 00000-0 55419-5 0 9990
2 25397 098.6877 090.2559 0002428 091.3294 268.8163 14.23665820084831
ISS
1 25544U 98067A 19150.98415631 -.00001302 00000-0 -14032-4 0 9995
2 25544 51.6415 86.6753 0007629 354.6727 97.1709 15.51154174172587
NO-44
1 26931U 01043C 19150.83356167 -.00000057 00000-0 98733-5 0 9992
2 26931 67.0526 52.3437 0006442 279.7314 80.3059 14.30542998922274
SO-50
1 27607U 02058C 19150.36639792 -.00000013 00000-0 19021-4 0 9990
2 27607 64.5543 108.6800 0081937 260.2470 98.9372 14.75548784884183
CO-55
1 27844U 03031E 19150.02413123 .00000042 00000-0 38759-4 0 9996
2 27844 98.6840 158.5317 0011121 88.6159 271.6293 14.22178257825492
CO-57
1 27848U 03031J 19150.01066779 .00000033 00000-0 35014-4 0 9991
2 27848 98.6918 159.0141 0010993 98.7160 261.5263 14.21773250825345
RS-22
1 27939U 03042A 19150.74261635 .00000090 00000-0 24763-4 0 9994
2 27939 98.0372 286.9313 0014055 124.8067 235.4472 14.66781716837761
NOAA-18
1 28654U 05018A 19150.22620114 .00000066 00000-0 60802-4 0 9995
2 28654 99.0974 196.9022 0013520 229.3250 130.6746 14.12426990722767
CO-58
1 28895U 05043F 19149.88836108 .00000075 00000-0 23176-4 0 9995
2 28895 097.9563 293.3017 0017935 057.3623 302.9307 14.63663210724356
Falconsat-3
1 30776U 07006E 19150.25595007 .00001663 00000-0 47631-4 0 9996
2 30776 35.4341 214.7119 0003311 290.4077 69.6294 15.36120955677695
CO-65
1 32785U 08021C 19150.32265653 .00000181 00000-0 25148-4 0 9998
2 32785 97.5493 150.9510 0012303 333.9938 26.0660 14.88302637600808
AAUSAT2
1 32788U 08021F 19150.03499007 .00000153 00000-0 19100-4 0 9991
2 32788 97.4975 166.6358 0010133 265.3866 94.6197 14.94707691601988
DO-64
1 32789U 08021G 19150.69350714 .00001384 00000-0 96599-4 0 9999
2 32789 97.4655 200.9313 0012235 182.6843 177.4321 15.06910197604105
CO-66
1 32791U 08021J 19149.83672752 .00000350 00000-0 40885-4 0 9994
2 32791 97.5279 156.4407 0012060 308.7663 51.2478 14.90808769601154
RS-30
1 32953U 08025A 19150.73084799 .00000020 00000-0 75656-4 0 9995
2 32953 82.5006 156.5572 0019355 166.4872 193.6730 12.43089719499952
PRISM
1 33493U 09002B 19150.80857778 .00000403 00000-0 40921-4 0 9996
2 33493 98.1232 71.0467 0013471 244.1973 115.7858 14.96639824562325
NOAA-19
1 33591U 09005A 19150.49081184 .00000075 00000-0 65827-4 0 9990
2 33591 99.1791 141.1505 0015010 73.6610 286.6210 14.12354556531208
TISAT-1
1 36799U 10035E 19150.08741630 .00000319 00000-0 38322-4 0 9993
2 36799 98.1533 301.5929 0013149 145.2230 214.9849 14.91090077481849
JUGNU
1 37839U 11058B 19150.18235194 .00000288 00000-0 11813-4 0 9990
2 37839 19.9606 93.0790 0019191 112.3098 17.6552 14.12651184394494
SRMSAT
1 37841U 11058D 19150.34552505 .00000299 00000-0 19276-4 0 9992
2 37841 19.9705 148.4666 0011754 345.2144 147.7093 14.10632582393954
AO-71
1 37854U 11061E 19150.16627892 .00001182 00000-0 67914-4 0 9996
2 37854 101.7041 38.3828 0161036 123.8104 237.8559 15.06364743414053
HRBE
1 37855U 11061F 19150.25872457 .00000725 00000-0 44213-4 0 9995
2 37855 101.7172 35.8827 0173769 134.3774 227.1821 15.05368341413854
ALMASAT-1
1 38078U 12006B 19150.89292807 .00022523 41714-5 13113-3 0 9994
2 38078 69.4274 320.1007 0166195 290.6682 187.7357 15.62222580394551
HORYU-2
1 38340U 12025D 19150.65810385 .00000150 00000-0 29932-4 0 9995
2 38340 98.3304 188.6761 0011596 178.0617 182.0638 14.75712000378357
RS-40
1 38735U 12041C 19150.70629033 .00000022 00000-0 86049-4 0 9995
2 38735 82.4773 239.9151 0015765 277.2688 82.6601 12.42578483310194
BEESAT-3
1 39135U 13015F 19149.90547489 .00000928 00000-0 55894-4 0 9995
2 39135 064.8673 102.5592 0018137 324.5831 035.4089 15.17422121336857
BEESAT-2
1 39136U 13015G 19150.26469348 .00000838 00000-0 52257-4 0 9994
2 39136 64.8687 105.1644 0018342 305.3430 54.5981 15.16858372337225
ZACUBE-1
1 39417U 13066B 19150.85630858 .00000185 00000-0 29434-4 0 9999
2 39417 97.5631 165.4161 0060594 95.6588 265.1539 14.81106274298257
TRITON-1
1 39427U 13066M 19150.84512621 .00000154 00000-0 32809-4 0 9992
2 39427 97.6746 129.3893 0112655 225.3241 133.8744 14.67831903295570
GOMX-1
1 39430U 13066Q 19150.76588689 .00000123 00000-0 31693-4 0 9990
2 39430 97.7445 108.5662 0150444 314.4123 44.4840 14.59244608293844
LO-74
1 39440U 13066AA 19150.22499734 .00000182 00000-0 32076-4 0 9995
2 39440 97.6017 149.8125 0081122 147.2653 213.3622 14.75844720297104
AO-73
1 39444U 13066AE 19150.05700634 .00000212 00000-0 32279-4 0 9993
2 39444 97.5612 166.5876 0059755 92.3586 268.4471 14.81922503297026
SPROUT
1 39770U 14029E 19150.72697619 .00000513 00000-0 62918-4 0 9994
2 39770 97.8837 254.1470 0009656 139.5718 220.6259 14.87316413272019
DUCHIFAT-1
1 40021U 14033M 19150.34561655 .00000393 00000-0 45955-4 0 9996
2 40021 97.9241 74.8754 0014255 111.0880 249.1863 14.90612822268668
NANOSATCBR1
1 40024U 14033Q 19150.83236606 .00000169 00000-0 23487-4 0 9995
2 40024 97.9141 72.8342 0013582 112.6559 247.6096 14.89829398268637
EO-79
1 40025U 14033R 19150.81611171 .00000169 00000-0 23960-4 0 9994
2 40025 97.9067 70.5300 0013726 118.1335 242.1271 14.88931271268512
DTUSAT-2
1 40030U 14033W 19150.73978303 .00000162 00000-0 23451-4 0 9992
2 40030 97.8986 68.6457 0013223 114.1229 246.1372 14.88525160268431
EO-80
1 40032U 14033Y 19150.34125757 .00000190 00000-0 26440-4 0 9990
2 40032 97.8993 68.2496 0013160 116.0279 244.2294 14.88467034268365
ANTELSAT
1 40034U 14033AA 19150.15626797 .00000164 00000-0 31687-4 0 9991
2 40034 97.7637 18.1613 0059169 158.1435 202.2318 14.74093730265794
VELOX-1
1 40057U 14034E 19150.85189210 .00000233 00000-0 40211-4 0 9998
2 40057 98.2318 273.5360 0009777 298.1734 61.8492 14.77653484264987
